Home > Weather > Carouge > Past weeks

Flag for Switzerland Past Weather in Carouge, Geneva, Switzerland — Yesterday and Last 2 Weeks

Now
67 °F

Passing clouds.


Feels Like: 67 °F
Forecast: 59 / 77 °F
Wind: 1 mph from South

Location: Geneve-Cointrin

Current Time: Aug 29, 2016 at 6:00:39 AM

Latest Report: Aug 29, 2016 at 5:00 AM


Visibility: 16 mi

Pressure: 30.09 "Hg

Humidity: 75%

Dew Point: 59 °F

Location of CarougeLocation

Past Weather in Carouge — Graph

°F

Carouge Temperature Yesterday

Maximum temperature yesterday: 90 °F (at 4:00 PM)
Minimum temperature yesterday: 63 °F (at 7:00 AM)
Average temperature yesterday: 76 °F

High & Low Weather Summary for the Past Weeks

 TemperatureHumidityPressure
High92 °F (Aug 25, 4:00 PM)95% (Aug 19, 4:00 AM)30.38 "Hg (Aug 19, 4:00 AM)
Low48 °F (Aug 22, 7:00 AM)25% (Aug 28, 4:00 PM)29.78 "Hg (Aug 17, 6:00 PM)
Average71 °F65%30.06 "Hg
* Reported Aug 14 5:00 AM — Aug 29 5:00 AM, Carouge, Weather by CustomWeather, © 2016

Note: Actual official high and low records may vary slightly from our data, if they occured in-between our weather recording intervals... More about our weather records

Advertising

Carouge Weather History for the Previous 24 Hours

Scroll right to see more
 ConditionsComfort  
Time TempWeatherWind HumidityBarometerVisibility
5:00 AM
Mon, Aug 29
67 °FPassing clouds.1 mph75%30.09 "Hg16 mi
4:00 AM66 °FMild.1 mph77%30.09 "HgN/A
3:00 AM66 °FMild.2 mph79%30.08 "HgN/A
2:00 AM67 °FPassing clouds.1 mph74%30.09 "Hg19 mi
1:00 AM70 °FMild.3 mph63%30.08 "HgN/A
12:00 AM71 °FMild.3 mph63%30.07 "HgN/A
11:00 PM
Sun, Aug 28
72 °FPassing clouds.2 mph64%30.06 "Hg22 mi
10:00 PM74 °FMild.1 mph59%30.04 "HgN/A
9:00 PM79 °FWarm.2 mph49%30.02 "HgN/A
8:00 PM82 °FPartly sunny.9 mph42%29.99 "Hg25 mi
7:00 PM84 °FPleasantly warm.9 mph39%29.99 "HgN/A
6:00 PM86 °FPleasantly warm.3 mph35%29.99 "HgN/A
5:00 PM87 °FPartly sunny.6 mph35%29.99 "Hg25 mi
4:00 PM90 °FHot.7 mph25%29.98 "HgN/A
3:00 PM90 °FHot.7 mph28%29.98 "HgN/A
2:00 PM88 °FPassing clouds.6 mph30%30.01 "Hg25 mi
1:00 PM85 °FPleasantly warm.5 mph38%30.03 "HgN/A
12:00 PM83 °FWarm.2 mph45%30.05 "HgN/A
11:00 AM78 °FPassing clouds.2 mph49%30.08 "Hg25 mi
10:00 AM75 °FMild.2 mph54%30.09 "HgN/A
9:00 AM72 °FMild.1 mph68%30.10 "HgN/A
8:00 AM65 °FPassing clouds.1 mph81%30.11 "Hg25 mi
7:00 AM63 °FMild.1 mph83%30.11 "HgN/A
6:00 AM64 °FMild.1 mph84%30.11 "HgN/A
Weather by CustomWeather, © 2016

See weather overviewHow to use our weather pages